Location: Mizzole
(45.4833°N, 11.0500°E)
Time: 10:54:35
(UTC+00:00)

HJ-1C - Pass Details

Date: 21 October 2019
Orbit: 433 x 449 km, 97.2° (Epoch: 14 November)

Event Time Altitude Azimuth Distance (km) Brightness Sun altitude
Exits shadow 17:54:52 29° 38° (NE) 842 4.4 -17.2°
Drops below altitude 10° 17:57:05 10° 5° (N) 1,575 6.1 -17.6°
Sets 17:59:13 0° 356° (N) 2,448 7.2 -17.9°
